Find STARLINK-37522

NORAD ID: 799500897 Int'l Des: 2026-127D Constellation: starlink operational

当前视图

正在加载3D地球...

关于 STARLINK-37522

正在加载描述...

即将过境

Passes for default location (London). Set your location on the main map for personalized predictions.

高度历史

Loading altitude history...

两行轨道根数

1 99999C 2026127D 26159.90118056 .00823170 00000-0 889890-4 0 1593
2 99999 53.1619 304.9550 0008866 292.2620 317.0074 16.08703860 11
Epoch: Jun 8, 2026 • Age: 4 hours

当前状态

高度 258.2 km
速度 7.75 km/s
星下点 -34.24°S, 132.96°W
发射日期 Jun 4, 2026
运行时间 4 days
类型 internet

Most Searched